Regional Weather Roundup
Issued by NWS

Home | Current Version | Previous Version | Text Only | Print | Product List | Glossary Off
Versions: 1 2 3 4 5 6 7 8 9 10 11 12 13 14 15 16 17 18 19 20 21 22 23 24 25 26 27 28 29 30 31 32 33 34 35 36 37 38 39 40 41 42 43 44 45 46 47 48 49 50

000
ASUS43 KOAX 220310
RWRNE

WEATHER ROUNDUP FOR NEBRASKA
NATIONAL WEATHER SERVICE OMAHA NE
900 PM CST FRI NOV 21 2014

NOTES: SATELLITE DATA IS BEING USED TO AUGMENT CLOUD COVER ABOVE
       12000 FEET.
       "FAIR" INDICATES FEW OR NO CLOUDS BELOW 12,000 FEET WITH NO
       SIGNIFICANT WEATHER AND/OR OBSTRUCTIONS TO VISIBILITY.

  * THESE STATIONS DO NOT REPORT WEATHER SUCH AS RAIN...SNOW OR FOG.

NEZ001>004-019>022-054>056-220400-
NEBRASKA PANHANDLE

CITY           SKY/WX    TMP DP  RH WIND       PRES   REMARKS
SCOTTSBLUFF    CLEAR     31  20  63 N5        29.90R WCI  26
ALLIANCE       CLEAR     27  17  66 W3        29.88S
CHADRON        CLEAR     28  24  85 W5        29.87F WCI  23
KIMBALL        CLEAR     31  18  58 W10       29.92S WCI  22
SIDNEY         CLEAR     28  17  63 W10       29.93R WCI  19
$$

NEZ057>060-069>072-079>082-220400-
SOUTHWEST NEBRASKA

CITY           SKY/WX    TMP DP  RH WIND       PRES   REMARKS
NORTH PLATTE   CLEAR     31  26  82 E5        29.91S WCI  26
IMPERIAL       PTCLDY    36  25  64 S6        29.91S WCI  31
LEXINGTON      CLEAR     36  28  74 S13       29.92F WCI  27
MCCOOK         CLEAR     37  32  82 S12       29.93S WCI  29
OGALLALA       CLEAR     35  26  70 SW5       29.91S WCI  30
$$

NEZ005>010-023>029-035>040-094-220400-
NORTH CENTRAL NEBRASKA

CITY           SKY/WX    TMP DP  RH WIND       PRES   REMARKS
VALENTINE      CLEAR     30  26  85 SW6       29.85S WCI  24
AINSWORTH      PTCLDY    37  28  69 W6        29.87R WCI  32
BROKEN BOW     CLEAR     36  27  69 SW7       29.91S WCI  30
O`NEILL        PTCLDY    39  33  77 S8        29.88S WCI  34
ORD            PTCLDY    37  28  70 S7        29.90F WCI  32
THEDFORD       CLEAR     39  29  66 SW9       29.89R WCI  33
$$

NEZ041-046>049-061>064-073>077-083>087-220400-
SOUTH CENTRAL NEBRASKA

CITY           SKY/WX    TMP DP  RH WIND       PRES   REMARKS
GRAND ISLAND   CLOUDY    41  31  67 S13       29.96F
AURORA         CLOUDY    39  32  76 S10       29.97F WCI  32
HASTINGS       CLOUDY    39  33  79 S7        29.97S WCI  34
HEBRON         CLOUDY    36  32  85 CALM      30.01F
HOLDREGE       MOCLDY    34  27  76 S6        29.96S WCI  29
KEARNEY *      MOCLDY    34  27  75 SE12      29.97S WCI  25
YORK           CLOUDY    37  32  81 S9        29.99S WCI  31
$$

NEZ011>018-030>034-042>045-220400-
NORTHEAST NEBRASKA

CITY           SKY/WX    TMP DP  RH WIND       PRES   REMARKS
NORFOLK        CLOUDY    37  30  75 S10       29.92S WCI  30
ALBION         MOCLDY    37  30  75 S9        29.93S WCI  30
BLAIR          CLOUDY    37  33  89 S14       30.00S FOG     WCI  28
COLUMBUS *     CLOUDY    37  32  81 S12       29.97F WCI  30
FREMONT        CLOUDY    37  35  90 S15       29.99F FOG     WCI  28
TEKAMAH        CLOUDY    38  31  76 S14       30.00S WCI  30
WAYNE          CLOUDY    35  30  81 S12       29.93F WCI  27
$$

NEZ050>053-065>068-078-088>093-220400-
SOUTHEAST NEBRASKA

CITY           SKY/WX    TMP DP  RH WIND       PRES   REMARKS
LINCOLN        CLOUDY    37  34  89 S8        30.03F FOG     WCI  31
OMAHA EPPLEY   CLOUDY    37  34  89 S15       30.03F WCI  28
BEATRICE       CLOUDY    36  36 100 S8        30.02F FOG     WCI  29
FALLS CITY     CLOUDY    36  33  89 SE5       30.05F WCI  32
NEBRASKA CITY  CLOUDY    34  34  98 S8        30.04F FOG     WCI  28
PLATTSMOUTH    CLOUDY    35  32  90 SE10      30.03F FOG     WCI  27
$$

NEZ044-045-051>053-067-220400-
OMAHA AREA

CITY           SKY/WX    TMP DP  RH WIND       PRES   REMARKS
OMAHA EPPLEY   CLOUDY    37  34  89 S15       30.03F WCI  28
BLAIR          CLOUDY    37  33  89 S14       30.00S FOG     WCI  28
FREMONT        CLOUDY    37  35  90 S15       29.99F FOG     WCI  28
MILLARD        CLOUDY    37  34  90 S8        30.02F FOG     WCI  30
OFFUTT AFB     CLOUDY    36  34  93 SE10      30.03S WCI  28
PLATTSMOUTH    CLOUDY    35  32  90 SE10      30.03F FOG     WCI  27
WAHOO          CLOUDY    37  33  86 S12       30.00F FOG     WCI  29
$$



USA.gov is the U.S. government's official web portal to all federal, state and local government web resources and services.